Tracking 29495 objects as of 7-Sep-2024
HD Live streaming from Space Station
objects crossing your sky now

FENGYUN 1C DEB

Track FENGYUN 1C DEB now!
10-day predictions


NORAD ID: 30565
Int'l Code: 1999-025ALF
Perigee: 777.0 km
Apogee: 993.0 km
Inclination: 98.5 °
Period: 102.5 minutes
Semi major axis: 7255 km
RCS: 0.0268 m2 (small)
Launch date: May 10, 1999
Source: People's Republic of China (PRC)
Launch site: Taiyaun Space Center, China (TSC)

Note: This is SATELLITE DEBRIS
Your satellite tracking list
Your tracking list is empty




NASA's NSSDC Master Catalog

Two Line Element Set (TLE):
1 30565U 99025ALF 24249.16568476  .00010687  00000-0  60712-2 0  9998
2 30565  98.4763 141.9492 0148805 235.2213 280.9234 14.04613811894044
Source of the keplerian elements: AFSPC